User: anonymous   Login
Location: Unspecified
(0.0000°N, 0.0000°E)
Time: 18:07:36
(UTC+00:00)
Language:

Kosmos-926 - Orbit

View from above orbital plane
View from above orbital plane
View from above satellite
View from above satellite

Ground track
Ground track

The orbit data is extracted from the following two-line orbital elements,

1 10137U 77062A   18016.83008160  .00000027  00000-0  12922-4 0  9995
2 10137  82.9430 114.6618 0031192 263.6541 217.6300 13.72295964 29109
Epoch (UTC): 16 January 2018 19:55:19
Eccentricity: 0.0031192
inclination: 82.9430°
perigee height: 968 km
apogee height: 1014 km
right ascension of ascending node: 114.6618°
argument of perigee: 263.6541°
revolutions per day: 13.72295964
mean anomaly at epoch: 217.6300°
orbit number at epoch: 2910

The dashed part of the orbit path shows where the satellite is in the earth's shadow,  

DLR